User: anonymous   Login
Location: Kosice
(0.0000°N, 21.2500°E)
Time: 04:54:00
(UTC+02:00)
Language:

BREEZE-M DEB (TANK) - Orbit

View from above orbital plane
View from above orbital plane
View from above satellite
View from above satellite

Ground track
Ground track

The orbit data is extracted from the following two-line orbital elements,

1 28870U 05036C   21102.49542340  .00000261  00000-0  14595-3 0  9992
2 28870  49.4373  11.7966 5435130 107.2209 316.9211  4.85086976306622
Epoch (UTC): 12 April 2021 11:53:24
Eccentricity: 0.5435130
inclination: 49.4373°
perigee height: 351 km
apogee height: 16374 km
right ascension of ascending node: 11.7966°
argument of perigee: 107.2209°
revolutions per day: 4.85086976
mean anomaly at epoch: 316.9211°
orbit number at epoch: 30662

The dashed part of the orbit path shows where the satellite is in the earth's shadow,  

DLR